When you browse on this site, cookies collect data to enhance your experience and personalize the content and advertising you see.
Visit our Privacy Policy to learn more. By continuing to use the site, you agree to this use of cookies and data.
  • In Spain
  • List of Countries
  • For 7 days
  • Water Temperature
  • Weather Map
  • Weather Widgets
  • user-avatar
    Login

    Hourly Weather Santa Fe

    Today, 8 December, Sunday

    Time Temperature Precipitation Wind Pressure Humidity
    00:00 +23°C° 0 mm 4 mps 756 mmHg 48%
    01:00 +22°C° 0 mm 4 mps 756 mmHg 50%
    02:00 +21°C° 0 mm 4 mps 756 mmHg 51%
    03:00 +20°C° 0 mm 3 mps 756 mmHg 55%
    04:00 +20°C° 0 mm 3 mps 756 mmHg 58%
    05:00 +19°C° 0 mm 3 mps 756 mmHg 61%
    06:00 +22°C° 0 mm 3 mps 756 mmHg 55%
    07:00 +25°C° 0 mm 3 mps 757 mmHg 49%
    08:00 +28°C° 0 mm 4 mps 757 mmHg 42%
    09:00 +30°C° 0 mm 4 mps 756 mmHg 36%
    10:00 +34°C° 0 mm 4 mps 756 mmHg 30%
    11:00 +36°C° 0 mm 4 mps 756 mmHg 24%
    12:00 +37°C° 0 mm 3 mps 755 mmHg 22%
    13:00 +38°C° 0 mm 3 mps 755 mmHg 20%
    14:00 +39°C° 0 mm 2 mps 754 mmHg 18%
    15:00 +38°C° 0 mm 3 mps 753 mmHg 19%
    16:00 +37°C° 0 mm 3 mps 753 mmHg 21%
    17:00 +37°C° 0 mm 4 mps 753 mmHg 22%
    18:00 +34°C° 0 mm 4 mps 753 mmHg 26%
    19:00 +31°C° 0 mm 3 mps 754 mmHg 30%
    20:00 +28°C° 0 mm 3 mps 754 mmHg 34%
    21:00 +28°C° 0 mm 3 mps 754 mmHg 36%
    22:00 +27°C° 0 mm 3 mps 755 mmHg 37%
    23:00 +26°C° 0 mm 2 mps 755 mmHg 39%

    Tomorrow, 9 December, Monday

    Time Temperature Precipitation Wind Pressure Humidity
    00:00 +25°C° 0 mm 2 mps 755 mmHg 43%
    01:00 +24°C° 0 mm 2 mps 755 mmHg 46%
    02:00 +23°C° 0 mm 2 mps 755 mmHg 50%
    03:00 +23°C° 0 mm 2 mps 755 mmHg 52%
    04:00 +21°C° 0 mm 2 mps 755 mmHg 54%
    05:00 +21°C° 0 mm 2 mps 756 mmHg 56%
    06:00 +25°C° 0 mm 3 mps 756 mmHg 50%
    07:00 +28°C° 0 mm 3 mps 756 mmHg 44%
    08:00 +30°C° 0 mm 4 mps 756 mmHg 38%
    09:00 +34°C° 0 mm 3 mps 756 mmHg 33%
    10:00 +36°C° 0 mm 3 mps 756 mmHg 27%
    11:00 +39°C° 0 mm 3 mps 755 mmHg 22%
    12:00 +39°C° 0 mm 3 mps 755 mmHg 20%
    13:00 +41°C° 0 mm 4 mps 754 mmHg 19%
    14:00 +42°C° 0 mm 4 mps 753 mmHg 17%
    15:00 +41°C° 0 mm 4 mps 753 mmHg 18%
    16:00 +40°C° 0 mm 4 mps 752 mmHg 19%
    17:00 +40°C° 0 mm 5 mps 752 mmHg 20%
    18:00 +36°C° 0 mm 4 mps 752 mmHg 24%
    19:00 +34°C° 0 mm 4 mps 752 mmHg 28%
    20:00 +30°C° 0 mm 3 mps 753 mmHg 32%
    21:00 +30°C° 0 mm 4 mps 753 mmHg 34%
    22:00 +29°C° 0 mm 4 mps 753 mmHg 36%
    23:00 +28°C° 0 mm 5 mps 754 mmHg 38%

    Day after tomorrow, 10 December, Tuesday

    Time Temperature Precipitation Wind Pressure Humidity
    00:00 +27°C° 0 mm 4 mps 754 mmHg 41%
    01:00 +27°C° 0 mm 4 mps 754 mmHg 44%
    02:00 +26°C° 0 mm 3 mps 754 mmHg 47%
    03:00 +25°C° 0 mm 3 mps 754 mmHg 48%
    04:00 +25°C° 0 mm 3 mps 754 mmHg 50%
    05:00 +24°C° 0 mm 2 mps 754 mmHg 51%
    06:00 +27°C° 0 mm 3 mps 754 mmHg 45%
    07:00 +29°C° 0 mm 3 mps 754 mmHg 39%
    08:00 +33°C° 0 mm 4 mps 755 mmHg 33%
    09:00 +36°C° 0 mm 4 mps 754 mmHg 28%
    10:00 +38°C° 0 mm 3 mps 754 mmHg 24%
    11:00 +40°C° 0 mm 3 mps 754 mmHg 19%
    12:00 +42°C° 0 mm 3 mps 753 mmHg 18%
    13:00 +41°C° 0 mm 2 mps 752 mmHg 17%
    14:00 +42°C° 0 mm 2 mps 751 mmHg 15%
    15:00 +42°C° 0 mm 2 mps 751 mmHg 16%
    16:00 +41°C° 0 mm 2 mps 750 mmHg 16%
    17:00 +41°C° 0 mm 2 mps 750 mmHg 17%
    18:00 +38°C° 0 mm 2 mps 750 mmHg 20%
    19:00 +35°C° 0 mm 3 mps 750 mmHg 24%
    20:00 +31°C° 0 mm 3 mps 750 mmHg 27%
    21:00 +31°C° 0 mm 3 mps 751 mmHg 29%
    22:00 +30°C° 0 mm 3 mps 751 mmHg 31%
    23:00 +29°C° 0 mm 4 mps 751 mmHg 33%

    11 December, Wednesday

    Time Temperature Precipitation Wind Pressure Humidity
    00:00 +28°C° 0 mm 4 mps 750 mmHg 35%
    01:00 +28°C° 0 mm 4 mps 750 mmHg 37%
    02:00 +27°C° 0 mm 3 mps 750 mmHg 39%
    03:00 +26°C° 0 mm 3 mps 750 mmHg 42%
    04:00 +26°C° 0 mm 3 mps 750 mmHg 45%
    05:00 +26°C° 0 mm 3 mps 750 mmHg 48%
    06:00 +29°C° 0 mm 4 mps 750 mmHg 44%
    07:00 +33°C° 0 mm 4 mps 750 mmHg 39%
    08:00 +36°C° 0 mm 5 mps 750 mmHg 34%
    09:00 +39°C° 0 mm 5 mps 749 mmHg 28%
    10:00 +42°C° 0 mm 5 mps 749 mmHg 22%
    11:00 +45°C° 0 mm 5 mps 748 mmHg 16%
    12:00 +44°C° 0 mm 4 mps 747 mmHg 16%
    13:00 +44°C° 0 mm 4 mps 747 mmHg 16%
    14:00 +44°C° 0 mm 3 mps 746 mmHg 17%
    15:00 +37°C° 0.3 mm 4 mps 746 mmHg 36%
    16:00 +32°C° 0.3 mm 5 mps 746 mmHg 56%
    17:00 +26°C° 0.3 mm 6 mps 746 mmHg 75%
    18:00 +25°C° 0.2 mm 5 mps 747 mmHg 76%
    19:00 +25°C° 0.2 mm 4 mps 748 mmHg 77%
    20:00 +24°C° 0.2 mm 3 mps 748 mmHg 78%
    21:00 +24°C° 0.1 mm 3 mps 749 mmHg 81%
    22:00 +22°C° 0.1 mm 3 mps 749 mmHg 83%
    23:00 +22°C° 0.1 mm 3 mps 750 mmHg 86%

    12 December, Thursday

    Time Temperature Precipitation Wind Pressure Humidity
    00:00 +23°C° 0 mm 2 mps 750 mmHg 85%
    01:00 +23°C° 0 mm 2 mps 751 mmHg 85%
    02:00 +24°C° 0 mm 2 mps 751 mmHg 84%
    03:00 +23°C° 0 mm 2 mps 752 mmHg 86%
    04:00 +21°C° 0 mm 3 mps 752 mmHg 88%
    05:00 +20°C° 0 mm 3 mps 752 mmHg 89%
    06:00 +22°C° 0 mm 4 mps 753 mmHg 67%
    07:00 +25°C° 0 mm 5 mps 753 mmHg 44%
    08:00 +27°C° 0 mm 6 mps 754 mmHg 22%
    09:00 +29°C° 0 mm 6 mps 754 mmHg 17%
    10:00 +32°C° 0 mm 7 mps 755 mmHg 13%
    11:00 +35°C° 0 mm 7 mps 755 mmHg 9%
    12:00 +35°C° 0 mm 7 mps 755 mmHg 10%
    13:00 +35°C° 0 mm 7 mps 755 mmHg 11%
    14:00 +36°C° 0 mm 7 mps 754 mmHg 13%
    15:00 +35°C° 0 mm 6 mps 754 mmHg 13%
    16:00 +34°C° 0 mm 6 mps 754 mmHg 13%
    17:00 +34°C° 0 mm 5 mps 754 mmHg 14%
    18:00 +30°C° 0 mm 5 mps 754 mmHg 16%
    19:00 +28°C° 0 mm 4 mps 754 mmHg 18%
    20:00 +25°C° 0 mm 3 mps 755 mmHg 20%
    21:00 +24°C° 0 mm 3 mps 756 mmHg 22%
    22:00 +22°C° 0 mm 3 mps 756 mmHg 24%
    23:00 +21°C° 0 mm 3 mps 757 mmHg 27%

    13 December, Friday

    Time Temperature Precipitation Wind Pressure Humidity
    00:00 +20°C° 0 mm 3 mps 757 mmHg 28%
    01:00 +19°C° 0 mm 3 mps 757 mmHg 30%
    02:00 +18°C° 0 mm 3 mps 758 mmHg 31%
    03:00 +17°C° 0 mm 3 mps 758 mmHg 37%
    04:00 +17°C° 0 mm 3 mps 758 mmHg 44%
    05:00 +16°C° 0 mm 3 mps 758 mmHg 50%
    06:00 +19°C° 0 mm 3 mps 759 mmHg 48%
    07:00 +21°C° 0 mm 4 mps 759 mmHg 46%
    08:00 +25°C° 0 mm 4 mps 759 mmHg 44%
    09:00 +27°C° 0 mm 4 mps 759 mmHg 36%
    10:00 +29°C° 0 mm 3 mps 759 mmHg 28%
    11:00 +33°C° 0 mm 3 mps 759 mmHg 20%
    12:00 +34°C° 0 mm 3 mps 758 mmHg 18%
    13:00 +35°C° 0 mm 2 mps 757 mmHg 16%
    14:00 +36°C° 0 mm 2 mps 756 mmHg 14%
    15:00 +36°C° 0 mm 2 mps 756 mmHg 14%
    16:00 +35°C° 0 mm 2 mps 755 mmHg 15%
    17:00 +35°C° 0 mm 3 mps 755 mmHg 15%
    18:00 +32°C° 0 mm 2 mps 755 mmHg 18%
    19:00 +29°C° 0 mm 2 mps 755 mmHg 20%
    20:00 +27°C° 0 mm 2 mps 755 mmHg 23%
    21:00 +26°C° 0 mm 3 mps 756 mmHg 27%
    22:00 +25°C° 0 mm 4 mps 757 mmHg 31%
    23:00 +25°C° 0 mm 5 mps 757 mmHg 35%
    Show more